TimeCST,TemperatureF,Dew PointF,Humidity,Sea Level PressureIn,VisibilityMPH,Wind Direction,Wind SpeedMPH,Gust SpeedMPH,PrecipitationIn,Events,Conditions,WindDirDegrees,DateUTC
12:15 AM,-13.0,-20.2,70,30.11,10.0,WSW,16.1,-,N/A,,Mostly Cloudy,250,2014-01-28 06:15:00
12:35 AM,-13.0,-22.0,64,30.11,10.0,WSW,13.8,-,N/A,,Partly Cloudy,250,2014-01-28 06:35:00
12:55 AM,-13.0,-20.2,70,30.11,10.0,WSW,16.1,-,N/A,,Clear,250,2014-01-28 06:55:00
1:15 AM,-14.8,-20.2,77,30.10,10.0,WSW,15.0,23.0,N/A,,Clear,250,2014-01-28 07:15:00
1:35 AM,-14.8,-23.8,64,30.10,10.0,WSW,13.8,-,N/A,,Clear,240,2014-01-28 07:35:00
1:55 AM,-14.8,-22.0,70,30.10,10.0,West,12.7,-,N/A,,Clear,260,2014-01-28 07:55:00
2:15 AM,-14.8,-22.0,70,30.10,10.0,West,13.8,20.7,N/A,,Clear,260,2014-01-28 08:15:00
2:35 AM,-14.8,-23.8,64,30.09,10.0,WSW,17.3,23.0,N/A,,Clear,250,2014-01-28 08:35:00
2:55 AM,-16.6,-23.8,70,30.09,10.0,WSW,15.0,-,N/A,,Clear,250,2014-01-28 08:55:00
3:15 AM,-16.6,-22.0,76,30.09,10.0,West,13.8,-,N/A,,Clear,260,2014-01-28 09:15:00
3:35 AM,-16.6,-23.8,70,30.08,10.0,WSW,16.1,-,N/A,,Clear,250,2014-01-28 09:35:00
3:55 AM,-16.6,-23.8,70,30.08,10.0,WSW,12.7,-,N/A,,Clear,240,2014-01-28 09:55:00
4:15 AM,-16.6,-23.8,70,30.08,10.0,WSW,13.8,18.4,N/A,,Clear,250,2014-01-28 10:15:00
4:35 AM,-16.6,-23.8,70,30.09,10.0,WSW,10.4,-,N/A,,Clear,250,2014-01-28 10:35:00
4:55 AM,-16.6,-23.8,70,30.09,10.0,WSW,11.5,-,N/A,,Clear,250,2014-01-28 10:55:00
5:15 AM,-18.4,-25.6,70,30.07,10.0,WSW,12.7,-,N/A,,Clear,240,2014-01-28 11:15:00
5:35 AM,-18.4,-23.8,76,30.07,10.0,WSW,11.5,-,N/A,,Clear,250,2014-01-28 11:35:00
5:55 AM,-18.4,-22.0,84,30.07,10.0,WSW,11.5,-,N/A,,Clear,250,2014-01-28 11:55:00
6:15 AM,-18.4,-25.6,70,30.06,10.0,WSW,11.5,-,N/A,,Clear,250,2014-01-28 12:15:00
6:35 AM,-18.4,-23.8,76,30.06,10.0,WSW,12.7,-,N/A,,Clear,250,2014-01-28 12:35:00
6:55 AM,-18.4,-23.8,76,30.06,10.0,WSW,15.0,-,N/A,,Clear,250,2014-01-28 12:55:00
7:15 AM,-18.4,-23.8,76,30.05,10.0,WSW,13.8,-,N/A,,Clear,240,2014-01-28 13:15:00
7:35 AM,-18.4,-25.6,70,30.06,10.0,WSW,11.5,-,N/A,,Clear,250,2014-01-28 13:35:00
7:55 AM,-18.4,-23.8,76,30.04,10.0,WSW,16.1,20.7,N/A,,Clear,250,2014-01-28 13:55:00
8:15 AM,-16.6,-20.2,84,30.04,10.0,WSW,15.0,21.9,N/A,,Clear,250,2014-01-28 14:15:00
8:35 AM,-16.6,-23.8,70,30.04,10.0,WSW,15.0,19.6,N/A,,Clear,250,2014-01-28 14:35:00
8:55 AM,-14.8,-20.2,77,30.05,10.0,WSW,17.3,21.9,N/A,,Clear,250,2014-01-28 14:55:00
9:15 AM,-14.8,-18.4,84,30.04,10.0,WSW,15.0,21.9,N/A,,Clear,250,2014-01-28 15:15:00
9:35 AM,-13.0,-23.8,59,30.04,10.0,WSW,17.3,23.0,N/A,,Clear,250,2014-01-28 15:35:00
9:55 AM,-13.0,-18.4,77,30.04,10.0,WSW,18.4,23.0,N/A,,Clear,250,2014-01-28 15:55:00
10:15 AM,-11.2,-18.4,70,30.04,10.0,West,19.6,24.2,N/A,,Clear,270,2014-01-28 16:15:00
10:35 AM,-11.2,-18.4,70,30.03,5.0,West,21.9,27.6,N/A,,Clear,260,2014-01-28 16:35:00
10:55 AM,-9.4,-16.6,71,30.02,5.0,West,23.0,28.8,N/A,,Clear,260,2014-01-28 16:55:00
11:15 AM,-9.4,-18.4,65,30.02,6.0,West,18.4,24.2,N/A,,Clear,260,2014-01-28 17:15:00
11:35 AM,-9.4,-16.6,71,30.01,7.0,WSW,20.7,24.2,N/A,,Clear,250,2014-01-28 17:35:00
11:55 AM,-7.6,-16.6,65,30.00,0.5,West,19.6,-,N/A,,Unknown,270,2014-01-28 17:55:00
12:15 PM,-7.6,-16.6,65,29.98,6.0,West,19.6,25.3,N/A,,Clear,270,2014-01-28 18:15:00
12:35 PM,-7.6,-16.6,65,29.97,10.0,West,19.6,23.0,N/A,,Clear,260,2014-01-28 18:35:00
12:55 PM,-5.8,-14.8,65,29.96,10.0,West,17.3,-,N/A,,Clear,260,2014-01-28 18:55:00
1:15 PM,-5.8,-16.6,60,29.94,9.0,WSW,19.6,23.0,N/A,,Clear,250,2014-01-28 19:15:00
1:35 PM,-4.0,-13.0,65,29.93,6.0,WSW,19.6,-,N/A,,Clear,250,2014-01-28 19:35:00
1:55 PM,-4.0,-14.8,60,29.92,8.0,WSW,20.7,26.5,N/A,,Clear,240,2014-01-28 19:55:00
2:15 PM,-2.2,-14.8,55,29.92,10.0,West,16.1,20.7,N/A,,Clear,260,2014-01-28 20:15:00
2:35 PM,-2.2,-13.0,60,29.91,10.0,WSW,15.0,-,N/A,,Clear,250,2014-01-28 20:35:00
2:55 PM,-2.2,-13.0,60,29.90,10.0,West,16.1,23.0,N/A,,Scattered Clouds,260,2014-01-28 20:55:00
3:15 PM,-2.2,-14.8,55,29.90,7.0,WSW,17.3,26.5,N/A,,Overcast,250,2014-01-28 21:15:00
3:35 PM,-0.4,-14.8,51,29.90,5.0,WSW,16.1,-,N/A,,Overcast,250,2014-01-28 21:35:00
3:55 PM,-2.2,-11.2,66,29.90,8.0,WSW,17.3,20.7,N/A,,Mostly Cloudy,240,2014-01-28 21:55:00
4:15 PM,-2.2,-14.8,55,29.90,10.0,WSW,17.3,24.2,N/A,,Scattered Clouds,250,2014-01-28 22:15:00
4:35 PM,-2.2,-14.8,55,29.90,10.0,WSW,13.8,-,N/A,,Overcast,250,2014-01-28 22:35:00
4:55 PM,-2.2,-14.8,55,29.89,10.0,WSW,13.8,-,N/A,,Overcast,240,2014-01-28 22:55:00
5:15 PM,-2.2,-14.8,55,29.89,10.0,WSW,17.3,21.9,N/A,,Overcast,250,2014-01-28 23:15:00
5:35 PM,-2.2,-14.8,55,29.89,10.0,SW,17.3,21.9,N/A,,Overcast,230,2014-01-28 23:35:00
5:55 PM,-2.2,-14.8,55,29.88,10.0,WSW,16.1,25.3,N/A,,Overcast,240,2014-01-28 23:55:00
6:15 PM,-2.2,-14.8,55,29.88,9.0,WSW,18.4,26.5,N/A,,Overcast,250,2014-01-29 00:15:00
6:35 PM,-2.2,-14.8,55,29.87,10.0,WSW,16.1,25.3,N/A,,Overcast,240,2014-01-29 00:35:00
6:55 PM,-2.2,-14.8,55,29.86,10.0,SW,17.3,-,N/A,,Overcast,230,2014-01-29 00:55:00
7:15 PM,-2.2,-11.2,66,29.85,7.0,WSW,17.3,28.8,N/A,,Overcast,240,2014-01-29 01:15:00
7:35 PM,-2.2,-14.8,55,29.85,10.0,WSW,17.3,20.7,N/A,,Overcast,240,2014-01-29 01:35:00
7:55 PM,-2.2,-11.2,66,29.85,8.0,SW,17.3,27.6,N/A,,Overcast,230,2014-01-29 01:55:00
8:15 PM,-2.2,-14.8,55,29.84,7.0,WSW,20.7,29.9,N/A,,Overcast,240,2014-01-29 02:15:00
8:35 PM,-2.2,-9.4,71,29.83,7.0,WSW,21.9,27.6,N/A,,Overcast,250,2014-01-29 02:35:00
8:55 PM,-2.2,-11.2,66,29.84,8.0,WSW,18.4,25.3,N/A,,Overcast,240,2014-01-29 02:55:00
9:15 PM,-2.2,-9999,N/A,29.83,9.0,WSW,19.6,29.9,N/A,,Overcast,240,2014-01-29 03:15:00
9:35 PM,-0.4,-11.2,60,29.83,9.0,WSW,20.7,27.6,N/A,,Overcast,240,2014-01-29 03:35:00
9:55 PM,-0.4,-11.2,60,29.82,10.0,WSW,18.4,26.5,N/A,,Overcast,240,2014-01-29 03:55:00
10:15 PM,-0.4,-7.6,72,29.81,10.0,WSW,17.3,24.2,N/A,,Overcast,250,2014-01-29 04:15:00
10:35 PM,1.4,-7.6,66,29.80,10.0,WSW,18.4,24.2,N/A,,Mostly Cloudy,250,2014-01-29 04:35:00
10:55 PM,1.4,-5.8,72,29.80,10.0,WSW,19.6,-,N/A,,Mostly Cloudy,250,2014-01-29 04:55:00
11:15 PM,1.4,-7.6,66,29.80,10.0,WSW,23.0,31.1,N/A,,Overcast,250,2014-01-29 05:15:00
11:35 PM,1.4,-7.6,66,29.80,7.0,WSW,19.6,28.8,N/A,,Overcast,250,2014-01-29 05:35:00
11:55 PM,1.4,-9.4,61,29.79,10.0,WSW,19.6,26.5,N/A,,Overcast,250,2014-01-29 05:55:00